Cross City, FL

4:19 PM EST on December 06, 2019 (GMT -0500)
Cross City

Weather History for KCTY - October, 2019

Change the Weather History Date:

Tuesday, October 15, 2019

  Actual Average Record
Temperature  
Mean Temperature 78 °F 71 °F  
Max Temperature 88 °F 83 °F 93 °F (2018)
Min Temperature 69 °F 59 °F 41 °F (2006)
Degree Days  
Heating Degree Days 0 1  
Month to date heating degree days 5  
Since 1 July heating degree days 5  
Cooling Degree Days 14 6  
Month to date cooling degree days 124  
Year to date cooling degree days 2466  
Growing Degree Days 28 (Base 50)    
Moisture  
Dew Point 71 °F    
Average Humidity 83    
Maximum Humidity 98    
Minimum Humidity 48    
Precipitation  
Precipitation 0.16 in 0.11 in 1.77 in (2002)
Month to date precipitation 1.96  
Year to date precipitation 41.79  
Sea Level Pressure  
Sea Level Pressure 30.02 in    
Wind  
Wind Speed 3 mph (South)    
Max Wind Speed 13 mph    
Max Gust Speed -    
Visibility 10 miles    
Events Rain , Thunderstorm    
T = Trace of Precipitation, MM = Missing Value Source: NWS Daily Summary

Daily Weather History Graph

Daily Weather History Graph

Search for Another Location

Airport or City:

Astronomy

Oct. 15, 2019 Rise Set
Actual Time 7:33 AM EDT 7:02 PM EDT
Civil Twilight 7:09 AM EDT 7:26 PM EDT
Nautical Twilight 6:42 AM EDT 7:53 PM EDT
Astronomical Twilight 6:14 AM EDT 8:21 PM EDT
Moon 8:26 PM EDT (10/15) 8:59 AM EDT (10/15)
Length of Visible Light 12h 16m
Length of Day
11h 28m
Full, 97% of the Moon is Illuminated
Oct 15
Full
Oct 21
Last Quarter
Oct 27
New
Nov 4
First Quarter
Nov 12
Full

Hourly Weather History & Observations

Time (EDT) Temp. Heat Index Dew Point Humidity Pressure Visibility Wind Dir Wind Speed Gust Speed Precip Events Conditions
12:15 AM 71.1 °F - 68.9 °F 93% 30.08 in 10.0 mi Calm Calm - N/A   Unknown
12:35 AM 71.8 °F - 69.8 °F 93% 30.08 in 10.0 mi ESE 4.6 mph - N/A   Unknown
12:55 AM 72.0 °F - 69.8 °F 93% 30.08 in 10.0 mi Calm Calm - N/A   Unknown
1:15 AM 72.0 °F - 70.0 °F 93% 30.07 in 10.0 mi Calm Calm - N/A   Clear
1:35 AM 71.4 °F - 69.4 °F 93% 30.07 in 10.0 mi Calm Calm - N/A   Unknown
1:55 AM 70.5 °F - 68.9 °F 95% 30.07 in 10.0 mi Calm Calm - N/A   Unknown
2:15 AM 70.5 °F - 68.9 °F 95% 30.07 in 10.0 mi South 3.5 mph - N/A   Unknown
2:35 AM 70.7 °F - 69.1 °F 95% 30.07 in 10.0 mi Calm Calm - N/A   Unknown
2:55 AM 70.9 °F - 69.1 °F 94% 30.06 in 10.0 mi Calm Calm - N/A   Unknown
3:15 AM 70.3 °F - 68.7 °F 95% 30.05 in 10.0 mi Calm Calm - N/A   Unknown
3:35 AM 70.0 °F - 68.5 °F 95% 30.05 in 10.0 mi Calm Calm - N/A   Unknown
3:55 AM 70.2 °F - 68.7 °F 95% 30.05 in 10.0 mi Calm Calm - N/A   Unknown
4:15 AM 70.3 °F - 68.5 °F 94% 30.05 in 10.0 mi Calm Calm - N/A   Unknown
4:35 AM 70.2 °F - 68.7 °F 95% 30.05 in 10.0 mi Calm Calm - N/A   Unknown
4:55 AM 70.5 °F - 68.7 °F 94% 30.04 in 10.0 mi Calm Calm - N/A   Unknown
5:15 AM 70.9 °F - 68.7 °F 93% 30.04 in 10.0 mi Calm Calm - N/A   Unknown
5:35 AM 70.0 °F - 68.4 °F 95% 30.05 in 10.0 mi Calm Calm - N/A   Unknown
5:55 AM 69.8 °F - 68.5 °F 96% 30.05 in 10.0 mi Calm Calm - N/A   Unknown
6:15 AM 69.8 °F - 68.7 °F 96% 30.06 in 10.0 mi Calm Calm - N/A   Unknown
6:35 AM 70.2 °F - 68.7 °F 95% 30.06 in 10.0 mi Calm Calm - N/A   Unknown
6:55 AM 69.8 °F - 68.5 °F 96% 30.06 in 10.0 mi Calm Calm - N/A   Unknown
7:15 AM 69.8 °F - 68.7 °F 96% 30.06 in 10.0 mi Calm Calm - N/A   Unknown
7:35 AM 69.8 °F - 68.9 °F 97% 30.06 in 10.0 mi Calm Calm - N/A   Unknown
8:15 AM 70.9 °F - 69.6 °F 96% 30.06 in 10.0 mi Calm Calm - N/A   Unknown
8:35 AM 71.6 °F - 70.2 °F 95% 30.07 in 10.0 mi Calm Calm - N/A   Unknown
8:55 AM 72.7 °F - 70.9 °F 94% 30.07 in 10.0 mi ESE 3.5 mph - N/A   Unknown
9:15 AM 73.8 °F - 71.2 °F 92% 30.07 in 10.0 mi East 3.5 mph - N/A   Unknown
9:35 AM 75.4 °F - 72.0 °F 89% 30.07 in 10.0 mi SE 3.5 mph - N/A   Unknown
9:55 AM 77.2 °F - 72.3 °F 85% 30.07 in 10.0 mi SE 4.6 mph - N/A   Unknown
10:15 AM 80.2 °F 84.5 °F 72.9 °F 78% 30.07 in 10.0 mi SSE 6.9 mph - N/A   Unknown
10:35 AM 81.1 °F 86.2 °F 73.2 °F 77% 30.07 in 10.0 mi SSW 4.6 mph - N/A   Unknown
10:55 AM 82.6 °F 88.1 °F 72.9 °F 72% 30.07 in 10.0 mi South 5.8 mph - N/A   Unknown
11:15 AM 84.0 °F 90.2 °F 73.0 °F 69% 30.07 in 10.0 mi South 8.1 mph - N/A   Unknown
11:35 AM 84.7 °F 90.7 °F 72.3 °F 66% 30.06 in 10.0 mi South 9.2 mph - N/A   Unknown
11:55 AM 86.4 °F 92.6 °F 72.0 °F 62% 30.05 in 10.0 mi South 8.1 mph - N/A   Unknown
12:15 PM 84.9 °F 90.4 °F 71.4 °F 64% 30.05 in 10.0 mi South 6.9 mph - N/A   Unknown
12:35 PM 84.9 °F 90.7 °F 71.8 °F 65% 30.04 in 10.0 mi SSW 5.8 mph - N/A   Unknown
12:55 PM 86.9 °F 92.5 °F 71.1 °F 59% 30.03 in 10.0 mi SSW 6.9 mph - N/A   Unknown
1:15 PM 85.1 °F 90.1 °F 70.7 °F 62% 30.03 in 10.0 mi SW 3.5 mph - N/A   Unknown
1:35 PM 88.5 °F 94.0 °F 70.3 °F 55% 30.02 in 10.0 mi South 9.2 mph - N/A   Unknown
1:55 PM 87.1 °F 92.0 °F 70.0 °F 57% 30.01 in 10.0 mi South 4.6 mph - N/A   Unknown
2:15 PM 87.8 °F 93.4 °F 71.1 °F 57% 30.00 in 10.0 mi South 6.9 mph - N/A   Unknown
2:35 PM 85.8 °F 90.4 °F 70.2 °F 59% 29.99 in 10.0 mi South 6.9 mph - N/A   Unknown
2:55 PM 86.5 °F 91.8 °F 70.5 °F 59% 29.97 in 10.0 mi South 6.9 mph - N/A   Unknown
3:15 PM 84.9 °F 90.1 °F 71.2 °F 63% 29.97 in 10.0 mi South 9.2 mph - N/A   Unknown
3:35 PM 84.9 °F 89.7 °F 70.7 °F 62% 29.96 in 10.0 mi SSE 8.1 mph - N/A   Unknown
3:55 PM 87.8 °F 93.8 °F 71.4 °F 58% 29.96 in 10.0 mi SSW 12.7 mph - N/A   Unknown
4:15 PM 87.3 °F 92.8 °F 70.7 °F 58% 29.95 in 10.0 mi South 9.2 mph - N/A   Unknown
4:35 PM 85.6 °F 89.7 °F 69.4 °F 58% 29.94 in 10.0 mi South 9.2 mph - N/A   Unknown
4:55 PM 84.2 °F 88.7 °F 70.3 °F 63% 29.95 in 10.0 mi SSW 10.4 mph - N/A   Unknown
5:15 PM 82.0 °F 86.3 °F 70.9 °F 69% 29.96 in 10.0 mi SSW 9.2 mph - N/A   Unknown
5:35 PM 80.4 °F 84.1 °F 70.9 °F 73% 29.96 in 10.0 mi SSW 8.1 mph - N/A   Unknown
5:55 PM 78.8 °F - 71.8 °F 79% 29.95 in 10.0 mi SSW 6.9 mph - N/A Rain Light Rain
6:15 PM 77.2 °F - 72.7 °F 86% 29.94 in 10.0 mi South 4.6 mph - N/A Rain Light Rain
6:35 PM 77.0 °F - 73.4 °F 89% 29.95 in 10.0 mi WSW 3.5 mph - N/A   Unknown
6:55 PM 76.3 °F - 73.2 °F 90% 29.95 in 10.0 mi SW 3.5 mph - N/A   Unknown
7:15 PM 76.3 °F - 73.4 °F 91% 29.96 in 10.0 mi Calm Calm - N/A   Unknown
7:35 PM 76.1 °F - 73.4 °F 91% 29.97 in 10.0 mi West 4.6 mph - N/A Rain Light Rain
7:55 PM 75.7 °F - 73.9 °F 94% 29.97 in 7.0 mi West 3.5 mph - 0.02 in Rain Light Rain
8:15 PM 75.2 °F - 74.3 °F 97% 29.96 in 2.0 mi Calm Calm - 0.03 in Rain Rain
8:35 PM 74.8 °F - 73.9 °F 97% 29.95 in 10.0 mi South 3.5 mph - 0.05 in Rain Light Rain
8:55 PM 74.7 °F - 73.8 °F 97% 29.94 in 10.0 mi South 4.6 mph - 0.05 in Rain Light Rain
9:15 PM 74.5 °F - 73.8 °F 98% 29.93 in 7.0 mi Calm Calm - 0.01 in Rain , Thunderstorm Light Thunderstorms and Rain
9:35 PM 74.5 °F - 73.8 °F 98% 29.93 in 7.0 mi NNE 3.5 mph - 0.01 in Thunderstorm Mist
9:55 PM 73.9 °F - 73.4 °F 98% 29.95 in 7.0 mi Calm Calm - 0.01 in   Unknown
10:15 PM 74.1 °F - 73.6 °F 98% 29.98 in 7.0 mi WSW 3.5 mph - N/A   Unknown
10:35 PM 75.2 °F - 73.4 °F 94% 29.97 in 7.0 mi Calm Calm - N/A   Mist
10:55 PM 74.1 °F - 73.4 °F 98% 29.96 in 7.0 mi South 6.9 mph - 0.01 in Rain Light Rain
11:15 PM 73.8 °F - 72.3 °F 95% 29.97 in 10.0 mi SSW 12.7 mph - 0.03 in Rain Rain
11:35 PM 73.0 °F - 71.6 °F 95% 29.97 in 10.0 mi SSW 6.9 mph - 0.06 in Rain Light Rain